307  
SXUS52 KTAE 220315  
OSOTAE  
OSOTAE  
NORTH FLORIDA/SOUTH ALABAMA/SOUTHWEST GEORGIA WEATHER ROUNDUP  
NATIONAL WEATHER SERVICE TALLAHASSEE FLORIDA  
1100 PM EDT TUE MAY 21 2019  
 
NOTE: "FAIR" INDICATES FEW OR NO CLOUDS BELOW 12,000 FEET WITH NO  
SIGNIFICANT WEATHER AND/OR OBSTRUCTIONS TO VISIBILITY.  
 
!FLZ017-115-028-034-025-220400   
..NORTH FLORIDA
 
 
 
CITY SKY/WX TMP DP RH WIND PRES REMARKS  
TALL INTL ARPT FAIR 76 66 71 E3 29.97R  
FSU LOVE BLDG NOT AVBL  
APALACHICOLA FAIR 72 63 73 CALM 29.96R  
PERRY MOCLDY 75 71 86 CALM 29.98R  
CROSS CITY FAIR 73 71 93 CALM 29.98R  
JACKSONVILLE FAIR 76 69 79 SE6 29.98R  

 
 
!FLZ112-006-005-002-011-220400   
..FLORIDA PANHANDLE
 
 
 
CITY SKY/WX TMP DP RH WIND PRES REMARKS  
MARIANNA FAIR 76 52 43 SW5 29.95R  
BONIFAY NOT AVBL  
PANAMA CITY NW FAIR 69 65 86 CALM 29.95S  
TYNDALL AFB FAIR 71 67 85 CALM 29.96R  
TYND DRONE APT FAIR 72 69 89 CALM 29.97R  
DE FUNIAK SPR FAIR 70 63 79 S3 29.97S  
EGLIN AFB FAIR 76 70 81 S7 29.95R  
DESTIN FAIR 78 69 73 S3 29.95R  
HURLBURT PTCLDY 77 70 79 CALM 29.94R  
CRESTVIEW FAIR 68 63 84 S3 29.97R  
PENSACOLA FAIR 75 72 90 S7 29.94R  

 
 
!ALZ063-066-220400   
..SOUTH ALABAMA
 
 
 
CITY SKY/WX TMP DP RH WIND PRES REMARKS  
DOTHAN FAIR 77 55 46 SW6 29.99R  
OZARK CAIRNS FAIR 75 60 60 S6 29.96R  
FT RUCKER HELI FAIR 69 61 77 CALM 29.96R  
RUCKER HELI 3 FAIR 74 59 59 SW3 29.96R  
RUCKER HELI 2 FAIR 73 61 65 CALM 29.95R  
FLORALA APT FAIR 71 62 73 CALM 29.98R  
ANDALUSIA FAIR 76 62 62 S3 29.96R  
TROY FAIR 72 59 63 CALM 29.96R  
EUFALA NOT AVBL  
MOBILE FAIR 76 72 87 SE9 29.93R  

 
 
!GAZ120>161-220400   
..SOUTHWEST AND SOUTH CENTRAL GEORGIA
 
 
 
CITY SKY/WX TMP DP RH WIND PRES REMARKS  
THOMASVILLE FAIR 73 64 73 CALM 29.98R  
BAINBRIDGE N/A 79 57 47 MISG 29.97R  
MOODY AFB FAIR 82 64 53 SW6 29.97R  
VALDOSTA FAIR 73 65 75 CALM 29.97R  
MOULTRIE FAIR 79 63 57 CALM 29.98R  
BLAKELY FAIR 72 59 64 CALM 29.97R  
ALBANY NOT AVBL  
TIFTON FAIR 77 64 64 CALM 29.97  
FITZGERALD MOCLDY 75 71 87 CALM 29.99R  
CORDELE FAIR 75 66 74 CALM 29.98R  
AMERICUS N/A 77 68 73 CALM 29.99R  
HOMERVILLE FAIR 79 66 65 SE6 29.98R  

 
 
!GMZ750-755-770-775-220400   
..COASTAL AND BUOY OBS
 
 
 
STATION/POSITION TIME TEMP WIND PRES VSBY WAVE  
AIR SEA DIR/SP/G HT/PER  
(UTC) (F) (DEG/KT/KT) (MB) (MI) (FT/S)  
KEATON BEACH 0300 78 70/ 2/ 3 1015.2R  
CEDAR KEY 0300 81 10/ 2/ 2 1014.9R  
C TOWER NOT AVBL  
APALACHICOLA BUO NOT AVBL  
PANAMA CITY BUOY NOT AVBL  
MOBILE BUOY 0250 140/ 12/ 16 1013.8R 4/ 5  
ORANGE BCH AL BU 0240 N/A 2/ 5  

 
 
 
CLICK HERE TO GO TO PREVIOUS BULLETINS.

The Nexlab FL Page
The Nexlab GA Page
The Nexlab AL Page Main Text Page